VLO6016 SBPA-SBVT

Flight info

Callsign VLO6016
Flight time N/A
Altitude FL350
Route PUDM1B UBNUT UN857 UDIRA UL206 TODET MIKE1A
Aircraft B703/H-VRDW/C

Departure

Time 2026-04-27 22:59
Airport Porto Alegre-Salgado Filho International Airport (SBPA)

Arrival

Time N/A
Airport Eurico de Aguiar Salles International Airport (SBVT)
Time Latitude Longitude Altitude Speed Heading
2026-04-27 22:44 -29.99068 -51.18108 23 ft 0 kts 297°
2026-04-27 22:50 -29.99079 -51.18081 23 ft 7 kts 268°
2026-04-27 22:51 -29.99074 -51.18034 23 ft 10 kts 263°
2026-04-27 22:51 -29.99049 -51.17974 23 ft 7 kts 204°
2026-04-27 22:51 -29.99034 -51.17966 23 ft 0 kts 204°
2026-04-27 22:54 -29.99040 -51.17969 23 ft 5 kts 202°
2026-04-27 22:54 -29.99110 -51.17972 22 ft 16 kts 176°
2026-04-27 22:54 -29.99233 -51.17912 22 ft 23 kts 124°
2026-04-27 22:54 -29.99244 -51.17728 21 ft 24 kts 86°
2026-04-27 22:55 -29.99244 -51.17532 21 ft 24 kts 91°
2026-04-27 22:55 -29.99248 -51.17344 20 ft 23 kts 91°
2026-04-27 22:55 -29.99252 -51.17164 20 ft 22 kts 91°
2026-04-27 22:55 -29.99257 -51.16990 20 ft 21 kts 91°
2026-04-27 22:56 -29.99260 -51.16819 21 ft 22 kts 91°
2026-04-27 22:56 -29.99264 -51.16645 21 ft 22 kts 91°
2026-04-27 22:56 -29.99268 -51.16468 21 ft 22 kts 92°
2026-04-27 22:56 -29.99272 -51.16305 22 ft 17 kts 97°
2026-04-27 22:57 -29.99341 -51.16247 23 ft 10 kts 180°
2026-04-27 22:57 -29.99395 -51.16247 23 ft 8 kts 180°
2026-04-27 22:57 -29.99444 -51.16242 24 ft 9 kts 152°
2026-04-27 22:57 -29.99467 -51.16169 25 ft 11 kts 90°
2026-04-27 22:58 -29.99461 -51.16070 25 ft 14 kts 66°
2026-04-27 22:58 -29.99467 -51.15984 25 ft 12 kts 196°
2026-04-27 22:58 -29.99469 -51.16086 25 ft 15 kts 271°
2026-04-27 22:58 -29.99462 -51.16371 24 ft 74 kts 271°
2026-04-27 22:59 -29.99441 -51.17295 21 ft 156 kts 271°
2026-04-27 22:59 -29.99406 -51.18728 520 ft 191 kts 271°
2026-04-27 22:59 -29.99377 -51.20174 1528 ft 181 kts 271°
2026-04-27 22:59 -29.99351 -51.21598 2035 ft 179 kts 271°
2026-04-27 23:00 -29.99298 -51.24472 3036 ft 181 kts 271°
2026-04-27 23:00 -29.99272 -51.25938 3540 ft 183 kts 271°
2026-04-27 23:00 -29.99138 -51.27389 4045 ft 184 kts 289°
2026-04-27 23:01 -29.98326 -51.28492 4533 ft 188 kts 330°
2026-04-27 23:01 -29.97039 -51.28800 5038 ft 194 kts 359°
2026-04-27 23:01 -29.95658 -51.28734 5553 ft 208 kts
2026-04-27 23:01 -29.94148 -51.28643 6080 ft 228 kts
2026-04-27 23:02 -29.92497 -51.28542 6605 ft 248 kts
2026-04-27 23:02 -29.90693 -51.28431 7129 ft 267 kts
2026-04-27 23:02 -29.88819 -51.28315 7637 ft 272 kts
2026-04-27 23:02 -29.86926 -51.28196 8137 ft 274 kts
2026-04-27 23:03 -29.85013 -51.28076 8637 ft 276 kts
2026-04-27 23:03 -29.83088 -51.27955 9137 ft 278 kts
2026-04-27 23:03 -29.81149 -51.27832 9637 ft 280 kts
2026-04-27 23:03 -29.79196 -51.27709 10138 ft 284 kts
2026-04-27 23:04 -29.77149 -51.27581 10655 ft 301 kts
2026-04-27 23:04 -29.75004 -51.27447 11168 ft 317 kts
2026-04-27 23:04 -29.72746 -51.27304 11680 ft 334 kts
2026-04-27 23:04 -29.70389 -51.27151 12211 ft 342 kts
2026-04-27 23:05 -29.68038 -51.26629 12833 ft 349 kts 15°
2026-04-27 23:05 -29.65717 -51.25788 13459 ft 352 kts 17°
2026-04-27 23:05 -29.63383 -51.24899 14085 ft 355 kts 17°
2026-04-27 23:05 -29.61008 -51.23989 14716 ft 359 kts 17°
2026-04-27 23:06 -29.58635 -51.23077 15341 ft 362 kts 17°
2026-04-27 23:06 -29.56238 -51.22156 15967 ft 365 kts 17°
2026-04-27 23:06 -29.53881 -51.21062 16585 ft 370 kts 29°
2026-04-27 23:06 -29.51891 -51.19177 17212 ft 376 kts 49°
2026-04-27 23:07 -29.50512 -51.16623 17842 ft 382 kts 66°
2026-04-27 23:07 -29.49581 -51.13768 18471 ft 386 kts 71°
2026-04-27 23:07 -29.48733 -51.10828 19100 ft 389 kts 71°
2026-04-27 23:07 -29.47898 -51.07869 19727 ft 393 kts 71°
2026-04-27 23:08 -29.47061 -51.04883 20352 ft 397 kts 71°
2026-04-27 23:08 -29.46219 -51.01874 20977 ft 400 kts 72°
2026-04-27 23:08 -29.45374 -50.98828 21603 ft 404 kts 72°
2026-04-27 23:08 -29.44542 -50.95761 22226 ft 406 kts 72°
2026-04-27 23:09 -29.43706 -50.92664 22852 ft 408 kts 72°
2026-04-27 23:09 -29.42866 -50.89549 23478 ft 409 kts 72°
2026-04-27 23:09 -29.42027 -50.86443 24102 ft 413 kts 72°
2026-04-27 23:09 -29.41172 -50.83281 24731 ft 421 kts 72°
2026-04-27 23:10 -29.40304 -50.80069 25358 ft 427 kts 72°
2026-04-27 23:10 -29.39424 -50.76816 25984 ft 431 kts 72°
2026-04-27 23:10 -29.38535 -50.73532 26609 ft 435 kts 72°
2026-04-27 23:10 -29.37643 -50.70236 27220 ft 437 kts 72°
2026-04-27 23:11 -29.36733 -50.66880 27728 ft 441 kts 72°
2026-04-27 23:11 -29.35827 -50.63537 28227 ft 443 kts 72°
2026-04-27 23:11 -29.34917 -50.60177 28725 ft 444 kts 72°
2026-04-27 23:11 -29.34006 -50.56816 29222 ft 444 kts 72°
2026-04-27 23:12 -29.33094 -50.53455 29669 ft 445 kts 72°
2026-04-27 23:12 -29.32180 -50.50081 30044 ft 446 kts 72°
2026-04-27 23:12 -29.31265 -50.46705 30401 ft 447 kts 72°
2026-04-27 23:12 -29.30333 -50.43262 30451 ft 455 kts 72°
2026-04-27 23:13 -29.27407 -50.36839 30511 ft 466 kts 48°
2026-04-27 23:13 -29.22517 -50.31919 30581 ft 475 kts 37°
2026-04-27 23:14 -29.17245 -50.27288 30646 ft 483 kts 36°
2026-04-27 23:14 -29.14557 -50.24943 30781 ft 485 kts 36°
2026-04-27 23:14 -29.11888 -50.22617 31000 ft 484 kts 36°
2026-04-27 23:15 -29.09216 -50.20289 31216 ft 483 kts 36°
2026-04-27 23:15 -29.06548 -50.17966 31431 ft 483 kts 36°
2026-04-27 23:15 -29.03889 -50.15651 31649 ft 482 kts 36°
2026-04-27 23:15 -29.01231 -50.13339 31870 ft 482 kts 36°
2026-04-27 23:16 -28.98572 -50.11027 32094 ft 482 kts 36°
2026-04-27 23:16 -28.95896 -50.08700 32320 ft 481 kts 36°
2026-04-27 23:16 -28.93244 -50.06396 32542 ft 481 kts 36°
2026-04-27 23:16 -28.90594 -50.04094 32754 ft 480 kts 36°
2026-04-27 23:17 -28.87943 -50.01792 32968 ft 480 kts 36°
2026-04-27 23:17 -28.85298 -49.99495 33182 ft 479 kts 36°
2026-04-27 23:17 -28.82658 -49.97203 33395 ft 479 kts 36°
2026-04-27 23:17 -28.80012 -49.94906 33607 ft 478 kts 36°
2026-04-27 23:18 -28.77360 -49.92604 33819 ft 478 kts 36°
2026-04-27 23:18 -28.74726 -49.90316 34028 ft 477 kts 36°
2026-04-27 23:18 -28.72177 -49.87912 34214 ft 478 kts 44°
2026-04-27 23:18 -28.70035 -49.85041 34376 ft 479 kts 54°
2026-04-27 23:19 -28.68231 -49.81870 34559 ft 479 kts 58°
2026-04-27 23:19 -28.66530 -49.78631 34751 ft 479 kts 59°
2026-04-27 23:19 -28.64849 -49.75375 34856 ft 480 kts 59°
2026-04-27 23:19 -28.63151 -49.72074 34871 ft 484 kts 59°
2026-04-27 23:20 -28.59755 -49.65466 35005 ft 486 kts 59°
2026-04-27 23:20 -28.56345 -49.58838 35109 ft 490 kts 59°
2026-04-27 23:21 -28.52905 -49.52159 35124 ft 493 kts 59°
2026-04-27 23:21 -28.49427 -49.45411 35138 ft 496 kts 59°
2026-04-27 23:22 -28.45948 -49.38670 35153 ft 498 kts 59°
2026-04-27 23:22 -28.42451 -49.31898 35169 ft 499 kts 59°
2026-04-27 23:23 -28.38935 -49.25093 35201 ft 500 kts 59°
2026-04-27 23:23 -28.37186 -49.21710 35303 ft 499 kts 59°
2026-04-27 23:23 -28.35439 -49.18328 35426 ft 498 kts 59°
2026-04-27 23:24 -28.33699 -49.14962 35548 ft 497 kts 59°
2026-04-27 23:24 -28.31960 -49.11594 35598 ft 497 kts 59°
2026-04-27 23:24 -28.28373 -49.04911 35604 ft 499 kts 53°
2026-04-27 23:25 -28.24005 -48.98789 35605 ft 500 kts 48°
2026-04-27 23:25 -28.19379 -48.92926 35605 ft 502 kts 47°
2026-04-27 23:26 -28.14698 -48.87077 35605 ft 503 kts 47°
2026-04-27 23:26 -28.10001 -48.81219 35605 ft 503 kts 47°
2026-04-27 23:27 -28.05307 -48.75371 35605 ft 504 kts 47°
2026-04-27 23:27 -28.00608 -48.69522 35605 ft 504 kts 47°
2026-04-27 23:28 -27.95906 -48.63675 35605 ft 504 kts 47°
2026-04-27 23:28 -27.91186 -48.57809 35605 ft 505 kts 47°
2026-04-27 23:29 -27.86478 -48.51963 35605 ft 505 kts 47°
2026-04-27 23:29 -27.81771 -48.46121 35605 ft 505 kts 47°
2026-04-27 23:30 -27.77044 -48.40253 35605 ft 505 kts 47°